Location: Lgota B?otna
(50.6876°N, 19.5697°E)
Time: 15:23:26
(UTC+00:00)

Daily predictions for brighter satellites

Satellite Brightness Start Highest point End
(mag) Time Altitude Azimuth Time Altitude Azimuth Time Altitude Azimuth
Cosmos 1459 Rocket 4.3 18:42:08 10° SSE 18:48:02 46° E 18:53:52 10° NNE
ATLAS 2AS CENTAUR R/B 2.7 18:44:05 10° SW 18:51:03 82° SE 18:57:54 10° NE
SL-24 R/B 4.1 18:47:04 10° NNE 18:51:18 73° ESE 18:55:41 10° S
Cosmos 2100 Rocket 4.2 18:45:21 10° SSE 18:51:20 53° E 18:57:27 10° NNE
Cosmos 44 Rocket 4.4 18:47:55 10° SSE 18:52:00 25° ESE 18:56:11 10° ENE
Cosmos 1743 3.6 18:51:19 10° NNE 18:53:44 21° ENE 18:56:09 10° SE
BREEZE-M DEB (TANK) 3.3 18:50:21 10° SW 18:54:20 24° SSE 18:56:29 10° ESE
Ariane Rocket 4.3 18:53:02 10° ESE 18:57:06 25° ENE 19:01:10 10° N
ISS -1.9 18:56:35 10° SSE 18:58:13 13° SE 18:59:50 10° ESE
ADEOS 3.6 18:53:47 10° SSE 18:59:00 85° ENE 19:04:15 10° NNW
Cosmos 2322 Rocket 4.4 18:57:17 10° N 19:00:31 15° NNE 19:03:46 10° ENE
Spot 2 Rocket 3.6 18:57:51 10° SSE 19:02:46 61° ENE 19:07:44 10° N
Cosmos 2082 Rocket 3.5 19:00:38 10° SE 19:04:39 20° E 19:08:40 10° NE
Cosmos 2151 Rocket 3.6 19:02:44 10° S 19:07:06 89° ESE 19:11:30 10° N
SL-4 R/B 2.8 19:04:16 10° W 19:07:48 36° SSW 19:11:18 10° SE
Okean 2 Rocket 3.1 19:05:04 10° S 19:09:31 73° E 19:14:01 10° NNE
BREEZE-M DEB (TANK) 4.4 19:07:57 10° WSW 19:12:54 83° SSE 19:35:16 10° ENE
Cosmos 1371 Rocket 4.4 19:09:17 10° SSW 19:14:34 72° WNW 19:19:56 10° NNE
Cosmos 1536 Rocket 4.0 19:10:16 10° NNW 19:14:34 62° W 19:18:52 10° S
IRS-1A Rocket 4.5 19:09:38 10° SSE 19:15:26 85° WSW 19:21:22 10° NNW
Timation 1 Rocket 4.5 19:11:26 10° S 19:17:15 55° ESE 19:23:07 10° NE
Cosmos 292 Rocket 4.0 19:13:24 10° NNW 19:18:10 70° WSW 19:22:53 10° SSE
Tsikada Rocket 4.4 19:12:35 10° N 19:18:32 46° ENE 19:24:01 12° SE
CZ-4C R/B 2.0 19:18:34 10° SSW 19:22:31 43° ESE 19:27:28 10° NE
Cosmos 2228 3.9 19:19:24 12° SSE 19:22:41 29° E 19:26:17 10° NNE
Cosmos 1725 Rocket 4.1 19:17:52 10° S 19:23:59 58° E 19:30:07 10° NNE
Cosmos 1697 Rocket 3.2 19:18:35 10° NW 19:24:05 55° WSW 19:29:32 10° S
Okean O Rocket 1.5 19:20:29 10° SSE 19:24:47 86° ENE 19:29:06 10° NNW
USA 305 3.0 19:21:23 10° WNW 19:25:27 61° NNE 19:29:06 10° E
ATLAS 3B R/B 3.2 19:18:52 10° NW 19:26:36 68° SW 19:33:32 12° SSE
ERS-1 Rocket 4.0 19:22:08 10° S 19:26:55 45° W 19:31:45 10° NNW
Cosmos 1741 Rocket 4.1 19:22:27 10° NNW 19:27:48 89° WSW 19:32:45 12° SSE
SL-16 R/B 3.6 19:23:10 10° NNW 19:27:58 27° NE 19:32:46 10° E
Cosmos 1452 Rocket 3.7 19:23:38 10° S 19:28:40 50° ESE 19:33:43 10° NNE
Helios 1A Rocket 3.6 19:26:00 10° N 19:29:02 41° WNW 19:32:01 10° SW
USA 186 1.2 19:28:18 14° SSE 19:30:28 88° WSW 19:33:12 10° NNW
Cosmos 1867 4.1 19:25:45 10° SW 19:31:09 66° NW 19:36:37 10° NE
Okean-O 2.7 19:33:14 10° S 19:37:35 75° WSW 19:42:00 10° NNW
Cosmos 1331 Rocket 3.9 19:32:44 10° SSW 19:37:59 81° ESE 19:43:14 10° NNE
Cosmos 968 Rocket 4.3 19:33:35 10° NNW 19:38:36 47° WSW 19:43:36 10° S
Cosmos 2333 Rocket 3.6 19:35:49 10° NNW 19:40:46 29° NE 19:45:39 10° ESE
Cosmos 1892 Rocket 3.5 19:38:15 10° N 19:42:37 87° WSW 19:46:26 13° S
CZ-4B R/B 3.6 19:39:17 16° SE 19:42:57 57° ENE 19:47:39 10° N
Cosmos 2016 Rocket 4.0 19:36:51 10° S 19:43:06 73° E 19:49:18 10° NNE
Cosmos 2173 Rocket 4.3 19:39:25 10° SSW 19:45:31 70° WNW 19:51:45 10° N
Cosmos 1302 Rocket 4.3 19:41:37 10° S 19:46:30 44° ESE 19:51:24 10° NE
USA 245 4.4 19:42:23 13° SSE 19:47:35 81° ENE 19:53:26 10° NNW
Cosmos 1455 Rocket 3.0 19:43:46 10° S 19:48:10 83° E 19:52:36 10° NNE
Cosmos 2061 Rocket 4.2 19:44:57 12° SSE 19:50:36 54° E 19:56:42 10° NNE
SL-08 R/B 3.9 19:46:00 10° N 19:50:49 63° WNW 19:55:33 10° SSW
NOSS 3-3 (A) 4.5 19:47:13 13° SSE 19:50:58 29° ESE 19:56:00 10° ENE
Cosmos 1980 Rocket 2.4 19:46:34 10° NNW 19:52:16 72° WSW 19:56:48 16° SSE
Okean 1 Rocket 4.1 19:50:06 10° SSW 19:54:19 47° WNW 19:58:37 10° N
Cosmos 724 4.4 19:48:30 10° SSW 19:54:22 56° ESE 20:00:10 10° NE
SPOT 3 Rocket 3.5 19:53:56 16° SSE 19:58:04 88° ENE 20:03:14 10° NNW
CZ-4 R/B 4.2 19:59:12 10° W 19:59:49 10° W 20:00:26 10° WNW
CZ-4B R/B 2.3 19:58:30 22° SSE 20:00:30 86° WSW 20:03:55 10° NNW
Cosmos 1544 Rocket 4.4 19:58:37 22° SE 20:00:39 33° E 20:04:32 10° NNE
Cosmos 1782 2.4 19:59:06 14° S 20:02:02 90° WNW 20:05:35 10° N
Cosmos 1933 4.3 20:09:27 24° ESE 20:10:24 27° E 20:13:41 10° NNE
Cosmos 1802 Rocket 4.4 20:05:53 10° SSW 20:12:02 64° WNW 20:18:10 10° N
Cosmos 2084 Rocket 3.4 20:08:03 10° NW 20:12:15 83° NE 20:14:32 27° SE
Cosmos 1833 Rocket 4.2 20:07:05 10° WSW 20:12:20 39° NW 20:17:37 10° NNE
Terra 4.1 20:10:29 10° SW 20:13:51 19° W 20:17:16 10° NW
Cosmos 1758 Rocket 3.7 20:10:04 10° N 20:14:24 62° ENE 20:16:41 27° SSE
IRS-1C Rocket 4.1 20:10:56 20° SSE 20:14:42 85° WSW 20:20:01 10° NNW
Gbstr 26 Del rocket 3.6 20:12:24 10° WNW 20:17:04 42° SW 20:18:53 27° SSE
Cosmos 2360 Rocket 3.5 20:13:16 10° NNW 20:18:20 32° NE 20:22:30 14° ESE
NOSS 3-3 (C) 4.2 20:15:34 20° S 20:18:40 37° ESE 20:24:14 10° NE
Helios 1B rocket 3.9 20:17:54 16° E 20:19:08 18° ENE 20:21:37 10° NNE
CZ-2C R/B 2.0 20:23:39 44° S 20:24:22 71° WSW 20:27:10 10° NNW
Cosmos 1743 4.3 20:24:09 10° NW 20:26:31 21° W 20:28:34 12° SW
Cosmos 2237 4.2 20:22:05 10° NNW 20:27:51 80° WSW 20:31:12 26° SSE
Geosat 4.2 20:24:47 10° NE 20:29:38 48° ESE 20:32:22 24° S
NOSS 3-4 (A) 4.3 20:26:03 10° NW 20:32:20 53° NE 20:38:36 15° ESE
NOSS 3-4 (C) 4.3 20:26:38 10° NW 20:32:57 53° NE 20:39:16 14° ESE
Cosmos 44 Rocket 3.8 20:27:56 10° SW 20:33:00 68° NW 20:38:13 10° NE
ISS -3.7 20:31:10 10° SW 20:34:26 52° SSE 20:35:05 43° ESE
Ariane Rocket 3.4 20:32:21 21° S 20:35:39 58° W 20:40:39 10° NNW
Cosmos 2219 Rocket 3.7 20:30:58 10° NNW 20:35:51 29° NE 20:40:07 13° E
Cosmos 1602 Rocket 3.6 20:35:49 10° N 20:40:06 65° ENE 20:41:43 36° SSE
ATLAS 2AS CENTAUR R/B 4.2 20:36:11 10° W 20:42:35 39° NNW 20:48:55 10° NE
Cosmos 2369 4.1 20:37:41 10° NW 20:43:16 56° WSW 20:46:24 26° S
Cosmos 2322 Rocket 2.8 20:40:33 10° NNW 20:46:02 47° NE 20:49:17 23° ESE
Cosmos 2082 Rocket 2.3 20:42:19 10° SSW 20:48:02 81° WNW 20:53:48 10° NNE
Cosmos 1437 Rocket 2.4 20:47:59 51° SSE 20:48:41 68° E 20:52:14 10° NNE
USA 305 2.6 20:46:56 10° WNW 20:50:50 49° SW 20:51:08 48° SSW
Cosmos 1891 Rocket 4.4 20:46:58 23° S 20:50:58 83° E 20:57:04 10° N
Cosmos 909 Rocket 3.9 20:44:40 10° SSW 20:50:59 79° SE 20:57:30 10° NE
Cosmos 2151 3.0 20:47:13 10° NNW 20:51:20 70° W 20:52:53 36° S
USA 234 3.8 20:47:25 10° ENE 20:53:18 35° SE 20:55:31 28° SSE
Meteor 1-5 Rocket 4.3 20:49:43 10° N 20:55:21 68° ENE 20:58:02 32° SSE
Cosmos 1626 Rocket 4.3 20:53:51 10° NNW 20:58:00 45° W 21:00:05 26° SSW
Cosmos 1607 4.1 20:53:19 10° SW 20:59:30 77° NW 21:05:49 10° NE
Okean O Rocket 4.2 20:59:52 10° WSW 21:01:35 12° W 21:03:18 10° WNW
Cosmos 2278 3.7 20:59:26 10° NNW 21:05:12 81° ENE 21:07:47 34° SE
Cosmos 1503 Rocket 4.5 21:01:28 10° NNW 21:06:34 51° ENE 21:08:48 30° ESE
Cosmos 1777 Rocket 4.2 21:01:46 10° NNW 21:07:00 64° ENE 21:09:08 35° SE
Okean 1-7 Rocket 3.5 21:04:04 10° N 21:08:32 78° E 21:09:50 46° SSE
Cosmos 1992 Rocket 4.2 21:05:58 17° SSW 21:10:03 71° WNW 21:15:17 10° NNE
CZ-4C R/B 3.2 21:06:22 10° WSW 21:10:42 42° NNW 21:16:17 10° NE
IKONOS-2 4.3 21:06:41 10° NNE 21:10:49 74° ESE 21:11:49 49° S
COSMOS 2406 3.1 21:07:29 24° SSW 21:11:05 79° ESE 21:16:52 10° NNE
Cosmos-2242 4.3 21:11:13 24° E 21:11:27 25° E 21:14:49 10° NE
Helios 1A 2.7 21:08:23 10° NNE 21:12:20 71° ESE 21:13:02 55° SSE
SL-16 R/B 2.2 21:06:57 10° NNW 21:12:39 75° WSW 21:14:58 37° SSE
Nadezhda 4 Rocket 3.9 21:09:18 10° N 21:15:28 89° E 21:18:18 35° S
Cosmos 1606 Rocket 3.5 21:15:48 49° SSE 21:16:47 66° E 21:21:05 10° NNE
Cosmos 1805 2.8 21:14:40 10° NNW 21:17:55 66° W 21:18:02 65° WSW
Cosmos 1486 Rocket 3.9 21:13:25 10° NNW 21:18:42 87° ENE 21:20:37 41° SSE
USA 290 4.3 21:24:21 17° ENE 21:24:21 17° ENE 21:25:33 10° NE
Cosmos 2333 Rocket 2.3 21:19:52 10° NW 21:25:32 68° WSW 21:27:39 39° S
CSL-04 DEB 3.8 21:26:07 75° SSE 21:26:24 86° ENE 21:30:00 10° NNW
Cosmos 2098 Rocket 3.4 21:25:32 35° SSW 21:27:41 75° W 21:32:18 10° N
SeaSat 1 4.2 21:24:17 12° E 21:27:54 27° NE 21:31:57 10° NNW
Cosmos 1766 3.9 21:25:45 10° N 21:28:33 33° ENE 21:28:33 33° ENE
Cosmos 1726 Rocket 3.3 21:29:27 59° SE 21:29:56 65° E 21:33:57 10° NNE
Cosmos 2195 Rocket 4.4 21:27:17 10° N 21:33:35 85° E 21:36:10 38° SSE
Cosmos 1076 Rocket 3.4 21:29:57 10° N 21:34:16 87° E 21:35:03 59° SSE
Cosmos 1980 Rocket 4.5 21:32:46 10° WNW 21:35:12 13° W 21:37:38 10° WSW
CZ-2C R/B 4.1 21:34:56 18° ESE 21:37:43 27° ENE 21:42:03 10° N
Cosmos 2026 Rocket 4.0 21:33:43 10° N 21:40:08 81° E 21:42:46 38° SSE
NOSS 3-3 (A) 4.1 21:35:55 10° WSW 21:41:13 65° NW 21:47:41 10° NE
Spot 4 3.8 21:44:25 49° SE 21:45:39 77° ENE 21:50:27 10° NNW
DNEPR-1 R/B 4.3 21:41:42 10° NW 21:47:06 70° SW 21:49:20 41° SSE
Aureole 1 Rocket 4.2 21:43:58 10° NNW 21:49:03 53° ENE 21:51:56 30° ESE
Okean 1 3.1 21:49:59 64° W 21:50:09 66° WNW 21:53:43 10° N
Helios 1B rocket 2.8 21:51:51 41° W 21:51:51 41° W 21:55:12 10° NNW
SAR-Lupe-2 3.8 21:53:25 55° ENE 21:53:25 55° ENE 21:56:31 10° N
Cosmos 1975 4.2 21:50:34 10° NNE 21:53:37 24° ENE 21:54:01 23° E
Cosmos 2333 4.2 21:50:01 10° NNW 21:55:44 78° WSW 21:57:35 45° SSE
Cosmos 44 4.3 21:51:20 10° NW 21:56:37 49° NE 21:59:53 22° ESE
Cosmos 1464 Rocket 4.4 21:53:23 26° SW 21:56:49 55° WNW 22:02:53 10° N
Cosmos 2360 Rocket 2.3 21:57:05 10° NW 22:02:40 60° WSW 22:04:14 44° SSW
Cosmos 1271 Rocket 4.0 22:04:45 25° ENE 22:04:45 25° ENE 22:07:03 10° NE
Meteor 1-26 Rocket 4.1 22:03:06 46° S 22:04:48 84° E 22:10:26 10° NNE
RESURS DK-1 4.2 22:03:40 10° NNW 22:07:02 25° NE 22:09:02 17° E
ALOS 2 2.5 22:06:32 63° S 22:07:12 82° WSW 22:11:37 10° NNW
ARIANE 5 R/B 2.6 22:07:11 57° SSW 22:07:52 67° W 22:12:18 10° NNW
NOSS 3-3 (C) 4.5 22:03:56 10° WSW 22:09:16 55° NW 22:15:47 10° NE
Cosmos 1953 Rocket 3.9 22:05:54 10° NNW 22:10:10 52° W 22:10:47 47° SW
ISS -1.1 22:07:52 10° W 22:08:15 13° W 22:08:15 13° W
GP-B 4.1 22:07:27 10° NNE 22:11:25 33° E 22:12:04 31° ESE
Cosmos 468 Rocket 4.5 22:11:08 41° SE 22:11:55 44° ESE 22:16:55 10° NE
Cosmos 2058 Rocket 2.9 22:11:46 68° S 22:12:19 86° ESE 22:16:41 10° N
BREEZE-M R/B 4.0 22:11:09 10° WNW 22:18:21 79° SSW 22:24:18 10° ESE
Cosmos 1092 Rocket 4.1 22:12:33 10° NNW 22:18:39 66° W 22:20:51 40° SSW
CZ-2C R/B 3.9 22:14:39 10° N 22:19:01 63° WNW 22:20:05 47° SW
Helios 1B 4.4 22:15:07 10° NNE 22:19:24 77° ESE 22:19:49 69° SSE
Cosmos 2219 Rocket 2.2 22:14:39 10° NNW 22:20:17 69° WSW 22:21:47 48° S
NOSS 3-4 (A) 4.1 22:16:52 10° NW 22:23:23 53° SW 22:26:00 38° S
NOSS 3-4 (C) 4.1 22:17:27 10° NW 22:24:01 54° SW 22:26:40 38° S
Cosmos 540 Rocket 3.4 22:23:21 51° SSW 22:24:43 90° NE 22:29:54 10° NNE
PSLV R/B 3.4 22:20:59 10° NNE 22:25:14 88° E 22:25:44 69° S
Meteor 1-14 Rocket 4.2 22:20:05 10° N 22:25:41 72° ENE 22:27:27 44° SSE
Cosmos 1898 Rocket 3.9 22:21:09 10° NNW 22:26:16 56° ENE 22:28:15 35° ESE
Cosmos 1461 3.3 22:26:32 41° W 22:27:19 49° NW 22:30:55 10° NNE
Cosmos 2322 Rocket 3.0 22:24:49 10° NW 22:29:56 36° WSW 22:31:03 33° SW
MetOp-A 3.8 22:29:01 53° SSE 22:30:14 88° ENE 22:35:08 10° NNW
Cosmos 2082 Rocket 4.5 22:28:39 10° W 22:33:01 22° NW 22:37:24 10° NNE
Landsat 5 4.5 22:31:09 10° NNE 22:34:54 32° E 22:35:02 32° E
SL-08 ROCKET BODY 4.4 22:30:09 10° NNW 22:36:18 79° W 22:38:25 44° S
USA 234 3.2 22:30:14 10° ENE 22:36:50 89° SSE 22:42:49 13° WSW
Cosmos 1707 3.8 22:38:21 28° NW 22:38:21 28° NW 22:40:16 10° N
Cosmos 1536 3.4 22:34:50 10° NNW 22:38:06 41° W 22:38:06 41° W
Meteor 2-9 Rocket 4.0 22:34:35 10° NNW 22:39:57 86° ENE 22:41:29 49° SSE
ACS3 Solar Sail 3.0 22:36:39 10° NNE 22:41:46 28° E 22:44:07 22° SE
COSMOS 2428 2.9 22:38:15 10° NNW 22:43:57 70° ENE 22:46:33 33° SE
Cosmos 2237 Rocket 3.4 22:42:04 10° NNW 22:47:23 38° NE 22:52:25 11° ESE
Cosmos 1763 Rocket 3.9 22:45:39 34° WSW 22:47:46 57° WNW 22:53:00 10° NNE
TSX-5 3.9 22:44:57 10° NNW 22:47:24 51° NNW 22:47:24 51° NNW
Cosmos-2242 3.9 22:47:28 32° W 22:48:16 35° WNW 22:52:06 10° N
CZ-2C R/B 3.2 22:44:24 10° NNE 22:50:05 83° ESE 22:51:56 46° S
SL-16 R/B 4.2 22:53:05 10° WNW 22:55:43 13° W 22:56:47 13° WSW
USA 290 4.0 22:56:48 25° WNW 22:57:00 25° NW 22:59:41 10° N
CZ-4C R/B 4.1 22:55:09 10° NNE 22:57:47 33° E 22:57:47 33° E
Cosmos 1238 Rocket 4.0 23:01:17 28° E 23:01:31 28° E 23:04:57 10° NNE
Cosmos 2227 Rocket 4.4 23:00:04 10° ESE 23:02:11 12° E 23:04:22 10° ENE
Cosmos 1766 Rocket 4.4 22:58:24 10° N 23:02:31 41° ENE 23:03:43 33° ESE
Cosmos 2279 Rocket 4.2 23:01:48 37° SW 23:04:16 64° WNW 23:10:30 10° N
Cosmos 1470 3.6 23:01:46 10° NNW 23:04:12 33° WNW 23:04:12 33° WNW
SeaSat 1 2.4 23:03:53 53° S 23:04:54 70° WSW 23:09:49 10° NW
Intercosmos 24 3.8 23:04:12 10° N 23:08:44 71° ENE 23:09:11 63° SE
Cosmos 2333 Rocket 4.3 23:06:39 10° WNW 23:08:44 12° W 23:09:39 12° WSW
Cosmos 2221 2.4 23:09:57 60° WSW 23:10:23 66° WNW 23:14:34 10° N
Cosmos 1842 4.3 23:13:51 28° WNW 23:13:51 28° WNW 23:16:21 10° N
Cosmos 841 Rocket 3.5 23:12:28 50° S 23:13:44 70° ESE 23:18:57 10° NNE
CZ-2C R/B 2.8 23:16:22 45° SSW 23:17:38 56° W 23:22:49 10° NNW
Alouette 2 Rocket 3.9 23:15:21 10° N 23:18:51 50° ENE 23:19:47 40° ESE
Meteor 1-19 Rocket 4.3 23:17:12 43° SSW 23:19:09 76° WNW 23:25:04 10° N
BREEZE-M DEB (TANK) 3.4 23:13:47 10° W 23:19:44 56° SSW 23:25:08 10° ESE
NOSS 0 Rocket 3.8 23:19:00 10° NNW 23:25:12 81° WSW 23:28:04 34° SSE
Cosmos 1975 3.9 23:25:22 10° NNW 23:28:17 29° W 23:28:17 29° W
DELTA 2 DEB (DPAF) 3.5 23:25:14 10° NNE 23:28:48 70° ESE 23:28:50 69° ESE
Cosmos 1655 Rocket 4.0 23:23:32 10° N 23:29:48 76° E 23:32:53 32° SSE
Cosmos 2266 Rocket 4.1 23:26:30 10° NNW 23:32:24 57° W 23:34:28 38° SSW
Cosmos 2322 4.0 23:28:25 10° NW 23:33:55 50° WSW 23:35:16 42° SSW
Cosmos 1812 Rocket 4.0 23:34:01 44° WSW 23:34:52 51° WNW 23:39:11 10° N
Cosmos 2297 Rocket 2.7 23:33:58 36° SSE 23:35:46 49° ESE 23:41:12 10° NE
Cosmos 44 4.0 23:32:42 10° NW 23:37:43 40° WSW 23:38:08 39° SW
Cosmos 858 Rocket 4.4 23:32:39 10° NNW 23:37:51 77° WSW 23:39:32 43° S
Cosmos 1271 Rocket 4.1 23:38:07 23° WNW 23:38:19 23° WNW 23:41:06 10° NNW
Meteor 2-20 Rocket 4.2 23:40:52 39° S 23:43:09 87° E 23:48:55 10° N
RESURS DK-1 2.7 23:40:46 10° NW 23:44:13 43° W 23:44:13 43° W
Cosmos 1937 Rocket 3.7 23:39:42 10° NNW 23:44:40 49° WSW 23:45:41 42° SW
Cosmos 2360 Rocket 4.4 23:44:48 10° W 23:45:27 10° W 23:45:57 10° W
Lacrosse 4 Rocket 2.9 23:46:25 21° ESE 23:46:55 21° ESE 23:50:00 10° ENE
Meteor 1-11 Rocket 4.3 23:42:29 10° NNW 23:47:54 44° W 23:49:32 35° SW
ISS -1.3 23:50:54 14° ESE 23:50:54 14° ESE 23:51:28 10° ESE
GP-B 4.2 23:44:34 10° NNW 23:48:23 30° WNW 23:49:14 27° W
NOSS 8 (H) 4.4 23:47:23 10° NW 23:49:51 61° NNW 23:49:51 61° NNW
Cosmos 1066 Rocket 4.4 23:49:22 34° SSE 23:51:35 61° E 23:56:57 10° NNE
